[[{"header":{"parameterUnit":"m.s-1","parameterCategory":1,"la1":30.2991,"la2":30.254,"lo1":-89.0895,"lo2":-89.0444,"dy":0.0017,"dx":0.0017,"nx":28,"ny":28,"refTime":"2025-08-28T03:00:00:Z","depth":0,"parameterNumber":2,"parameterNumberName":"U-component_of_WINDS"},"data":[0,0,0,0,0,0,0,0,0,0,0,0,0,0,0,0,0,0,0,0,0,0,0,0,0,0,0,0,0,0,0,0,0,0,0,0,0,0,0,0,0,0,0,0,0,0,0,0,0,0,0,0,0,0,0,0,0,0,-1.3407,-1.3408,0,-1.3504,-1.3505,-1.3506,-1.3532,-1.3532,-1.3531,-1.3531,-1.3634,-1.3637,-1.364,0,0,0,0,0,0,0,0,0,0,0,0,0,-1.3249,-1.3252,-1.3407,-1.3408,-1.3409,-1.3503,-1.3505,-1.3506,-1.3532,-1.3532,-1.3531,-1.353,-1.3633,-1.3637,-1.3641,0,0,0,0,0,0,0,0,0,0,0,0,0,-1.3329,-1.3253,-1.3407,-1.3434,-1.3437,-1.3503,-1.3505,-1.3506,-1.3533,-1.3532,-1.3531,-1.353,-1.3632,-1.3636,-1.3641,-1.3689,0,0,-1.3656,-1.3658,0,0,0,0,0,0,0,0,-1.3324,-1.3335,-1.3428,-1.3432,-1.3436,-1.3505,-1.3487,-1.3568,-1.3533,-1.3496,-1.3531,-1.353,-1.3592,-1.36,-1.362,-1.3693,-1.3698,-1.3657,-1.366,-1.3662,-1.3663,0,0,0,0,0,0,0,-1.3319,-1.3331,-1.3445,-1.343,-1.3434,-1.3442,-1.3453,-1.3502,-1.3548,-1.35,-1.3502,-1.3513,-1.3594,-1.3615,-1.3623,-1.3699,-1.3656,-1.3661,-1.3664,-1.3666,-1.3816,-1.3817,0,0,0,0,0,0,-1.3308,-1.3326,-1.3442,-1.3448,-1.3377,-1.3446,-1.3457,-1.3484,-1.3547,-1.3556,-1.3513,-1.3513,-1.3607,-1.3617,-1.3627,-1.3686,-1.3662,-1.3666,-1.3669,-1.3815,-1.3816,-1.3818,0,0,0,0,0,0,-1.3304,-1.3318,-1.3438,-1.3388,-1.3403,-1.3449,-1.3479,-1.3486,-1.3508,-1.3558,-1.3566,-1.3526,-1.3607,-1.362,-1.3673,-1.369,-1.3668,-1.3673,-1.3814,-1.3816,-1.3817,-1.3804,0,0,0,0,0,0,-1.33,-1.3317,-1.3334,-1.3388,-1.3406,-1.3481,-1.348,-1.3489,-1.3515,-1.3517,-1.3572,-1.3581,-1.3607,-1.3665,-1.3677,-1.3696,-1.3677,-1.3813,-1.3815,-1.3817,-1.3803,-1.3805,-1.3807,0,0,0,0,0,-1.3294,-1.3328,-1.3335,-1.3349,-1.3429,-1.3482,-1.3493,-1.3521,-1.3517,-1.3535,-1.3567,-1.3579,-1.3686,-1.367,-1.3684,-1.3705,-1.3812,-1.3814,-1.3816,-1.3803,-1.3805,-1.3807,0,0,0,0,0,0,-1.3277,-1.3335,-1.3344,-1.3396,-1.3433,-1.3486,-1.3511,-1.3523,-1.3564,-1.3564,-1.3599,-1.3611,-1.3661,-1.3689,-1.367,-1.3754,-1.3749,-1.3754,-1.3734,-1.3736,-1.3738,-1.373,-1.3681,0,0,0,0,0,-1.3278,-1.3316,-1.3366,-1.3407,-1.3425,-1.3464,-1.3489,-1.3507,-1.3549,-1.3565,-1.3602,-1.3642,-1.3685,-1.3713,-1.3755,-1.3808,-1.3821,-1.3829,-1.3831,-1.3832,-1.3836,-1.3866,-1.387,-1.3825,-1.3825,-1.3825,0,0,-1.3283,-1.332,-1.3342,-1.3404,-1.3435,-1.3474,-1.3478,-1.3519,-1.3548,-1.3572,-1.3623,-1.3652,-1.37,-1.3753,-1.3778,-1.3777,-1.3851,-1.3835,-1.3835,-1.3839,-1.3868,-1.3873,-1.3876,-1.3827,-1.3827,-1.3826,0,0,-1.3311,-1.3343,-1.338,-1.3411,-1.3458,-1.3484,-1.3493,-1.3545,-1.3563,-1.3615,-1.3634,-1.3671,-1.3743,-1.3776,-1.3803,-1.3844,-1.3856,-1.3857,-1.3865,-1.3894,-1.3897,-1.3901,-1.3915,-1.3919,-1.3861,-1.3861,-1.3861,0,-1.3311,-1.3369,-1.3398,-1.3437,-1.3464,-1.3486,-1.3525,-1.3554,-1.3614,-1.3632,-1.363,-1.3722,-1.3756,-1.3816,-1.3826,-1.3847,-1.3859,-1.385,-1.3894,-1.3898,-1.3901,-1.3915,-1.392,-1.386,-1.386,-1.386,-1.386,0,-1.3367,-1.3407,-1.3431,-1.3485,-1.3516,-1.3555,-1.359,-1.3617,-1.3634,-1.366,-1.3713,-1.3755,-1.3805,-1.3822,-1.3839,-1.3885,-1.3883,-1.3887,-1.3883,-1.3905,-1.3918,-1.3924,-1.386,-1.386,-1.386,-1.386,0,0,-1.3386,-1.3455,-1.3464,-1.3488,-1.3542,-1.3574,-1.3615,-1.3662,-1.3685,-1.3726,-1.376,-1.3822,-1.3826,-1.3856,-1.3877,-1.3902,-1.3931,-1.3904,-1.3905,-1.3906,-1.3984,-1.398,-1.3985,-1.394,-1.3941,-1.3942,-1.398,0,-1.342,-1.349,-1.3517,-1.3576,-1.3613,-1.3635,-1.367,-1.3707,-1.3733,-1.377,-1.38,-1.3842,-1.3845,-1.3863,-1.3889,-1.3922,-1.3947,-1.392,-1.3973,-1.3975,-1.3959,-1.3992,-1.3988,-1.4021,-1.3985,-1.3986,-1.3987,0,-1.3469,-1.3507,-1.3569,-1.3617,-1.3634,-1.3665,-1.3711,-1.3745,-1.3789,-1.3806,-1.3839,-1.3858,-1.3903,-1.3896,-1.3958,-1.3939,-1.3963,-1.3982,-1.3984,-1.399,-1.3981,-1.3998,-1.4033,-1.4038,-1.3996,-1.3995,-1.3994,0,-1.3475,-1.3543,-1.3588,-1.3609,-1.3667,-1.3688,-1.3714,-1.3756,-1.3783,-1.3824,-1.3842,-1.3888,-1.3914,-1.395,-1.3982,-1.3974,-1.404,-1.4037,-1.4056,-1.4055,-1.4068,-1.4067,-1.4107,-1.4085,-1.4085,-1.4085,-1.4085,0,-1.351,-1.3546,-1.3592,-1.3619,-1.3661,-1.3693,-1.3734,-1.3761,-1.3799,-1.3833,-1.3856,-1.3888,-1.3928,-1.3966,-1.3992,-1.4039,-1.405,-1.4066,-1.4072,-1.4063,-1.4061,-1.4079,-1.4077,-1.4087,-1.4086,-1.4086,-1.4086,0,-1.3523,-1.3555,-1.3606,-1.3656,-1.367,-1.3698,-1.3742,-1.3771,-1.3798,-1.3841,-1.3853,-1.3896,-1.3942,-1.3977,-1.4038,-1.4055,-1.4104,-1.4112,-1.4089,-1.4092,-1.4109,-1.4106,-1.4161,-1.4169,-1.4143,-1.4143,-1.4143,0,-1.3543,-1.3571,-1.3624,-1.3647,-1.3672,-1.371,-1.3738,-1.377,-1.3798,-1.3849,-1.3872,-1.3918,-1.3957,-1.4029,-1.4067,-1.4113,-1.4121,-1.4137,-1.4128,-1.4118,-1.4121,-1.4118,-1.4121,-1.4138,-1.4138,-1.4138,-1.4138,0,-1.3573,-1.3587,-1.3625,-1.3668,-1.3699,-1.3735,-1.3771,-1.379,-1.383,-1.386,-1.3906,-1.3936,-1.3996,-1.4042,-1.4092,-1.412,-1.4136,-1.4141,-1.4148,-1.4138,-1.4123,-1.4131,-1.409,-1.4139,-1.4139,-1.4139,-1.4139,-1.4139,-1.359,-1.3616,-1.3656,-1.3697,-1.3728,-1.3761,-1.379,-1.382,-1.3858,-1.3909,-1.3926,-1.3973,-1.4017,-1.4085,-1.4114,-1.4152,-1.4153,-1.4163,-1.4165,-1.4167,-1.4166,-1.4118,-1.4161,-1.4161,-1.4161,-1.4162,-1.4162,0,-1.3621,-1.3648,-1.3685,-1.3734,-1.3767,-1.3777,-1.3819,-1.3845,-1.3886,-1.3924,-1.3961,-1.4014,-1.4059,-1.41,-1.4148,-1.417,-1.4179,-1.4182,-1.418,-1.4186,-1.4163,-1.4151,-1.4174,-1.4174,-1.4174,-1.4174,-1.4174,-1.4174,-1.364,-1.3684,-1.3703,-1.3763,-1.3791,-1.3835,-1.3858,-1.3889,-1.392,-1.3977,-1.4013,-1.4039,-1.4079,-1.4129,-1.4172,-1.4183,-1.4199,-1.42,-1.4213,-1.419,-1.4188,-1.4186,-1.4176,-1.4203,-1.4203,-1.4233,-1.4233,-1.4233]},{"header":{"parameterUnit":"m.s-1","parameterCategory":1,"la1":30.2991,"la2":30.254,"lo1":-89.0895,"lo2":-89.0444,"dy":0.0017,"dx":0.0017,"nx":28,"ny":28,"refTime":"2025-08-28T03:00:00:Z","depth":0,"parameterNumber":3,"parameterNumberName":"V-component_of_WINDS"},"data":[0,0,0,0,0,0,0,0,0,0,0,0,0,0,0,0,0,0,0,0,0,0,0,0,0,0,0,0,0,0,0,0,0,0,0,0,0,0,0,0,0,0,0,0,0,0,0,0,0,0,0,0,0,0,0,0,0,0,-0.9807,-0.9808,0,-0.9922,-0.9923,-0.9925,-0.9984,-0.9984,-0.9984,-0.9984,-1.0101,-1.0104,-1.0107,0,0,0,0,0,0,0,0,0,0,0,0,0,-0.9639,-0.9641,-0.9807,-0.9808,-0.981,-0.9922,-0.9923,-0.9925,-0.9984,-0.9984,-0.9984,-0.9984,-1.01,-1.0104,-1.0107,0,0,0,0,0,0,0,0,0,0,0,0,0,-0.9728,-0.9642,-0.9807,-0.9853,-0.9858,-0.9921,-0.9923,-0.9925,-0.9984,-0.9984,-0.9984,-0.9984,-1.0099,-1.0103,-1.0108,-1.0134,0,0,-1.0122,-1.0124,0,0,0,0,0,0,0,0,-0.9723,-0.9734,-0.9845,-0.985,-0.9856,-0.9939,-0.9907,-0.9995,-0.9984,-0.9936,-0.9984,-0.9984,-1.0047,-1.0056,-1.0077,-1.0139,-1.0144,-1.0122,-1.0125,-1.0127,-1.0128,0,0,0,0,0,0,0,-0.9717,-0.973,-0.9852,-0.9846,-0.9853,-0.9868,-0.9881,-0.9924,-0.999,-0.994,-0.9945,-0.9958,-1.005,-1.0073,-1.008,-1.0146,-1.0122,-1.0126,-1.0129,-1.0131,-1.0236,-1.0236,0,0,0,0,0,0,-0.9703,-0.9724,-0.9849,-0.9856,-0.9788,-0.9871,-0.9885,-0.9912,-0.9989,-1.0001,-0.9958,-0.996,-1.0065,-1.0075,-1.0085,-1.0121,-1.0127,-1.0131,-1.0134,-1.0236,-1.0236,-1.0236,0,0,0,0,0,0,-0.9699,-0.9714,-0.9844,-0.9791,-0.9809,-0.9873,-0.9903,-0.9914,-0.9937,-1.0002,-1.0014,-0.9968,-1.0065,-1.0078,-1.0121,-1.0125,-1.0133,-1.0138,-1.0236,-1.0236,-1.0236,-1.0192,0,0,0,0,0,0,-0.9694,-0.9712,-0.9723,-0.9791,-0.9812,-0.9879,-0.9903,-0.9916,-0.9945,-0.9949,-1.0016,-1.0027,-1.0066,-1.0114,-1.0126,-1.0132,-1.0141,-1.0236,-1.0236,-1.0236,-1.0193,-1.0191,-1.0188,0,0,0,0,0,-0.9688,-0.9705,-0.9723,-0.9737,-0.9826,-0.9879,-0.9891,-0.9936,-0.9945,-0.9956,-0.9998,-1.0025,-1.0123,-1.0118,-1.0132,-1.0139,-1.0236,-1.0236,-1.0236,-1.0195,-1.0191,-1.0188,0,0,0,0,0,0,-0.9635,-0.9715,-0.9735,-0.9775,-0.982,-0.9889,-0.9904,-0.9931,-0.9974,-0.9976,-1.003,-1.0045,-1.0083,-1.0116,-1.0109,-1.0169,-1.0182,-1.0185,-1.0146,-1.0143,-1.0141,-1.0132,-1.0145,0,0,0,0,0,-0.9628,-0.9664,-0.9732,-0.9761,-0.9783,-0.9839,-0.9864,-0.9895,-0.9943,-0.9963,-1.0008,-1.0053,-1.0095,-1.0121,-1.0163,-1.0198,-1.0214,-1.021,-1.0208,-1.0205,-1.0207,-1.0229,-1.0228,-1.0237,-1.0237,-1.0237,0,0,-0.9614,-0.9662,-0.9682,-0.9752,-0.979,-0.9826,-0.9855,-0.9892,-0.992,-0.9968,-1.0012,-1.0047,-1.0101,-1.0141,-1.0161,-1.0169,-1.0208,-1.0205,-1.0203,-1.0206,-1.0229,-1.0228,-1.0227,-1.0237,-1.0237,-1.0237,0,0,-0.9607,-0.9647,-0.9676,-0.9713,-0.9771,-0.9809,-0.9816,-0.9881,-0.9906,-0.9951,-0.9988,-1.0021,-1.0091,-1.0129,-1.0157,-1.0165,-1.0191,-1.0177,-1.0163,-1.0184,-1.0183,-1.0183,-1.0186,-1.0186,-1.0178,-1.0178,-1.0178,0,-0.9582,-0.9639,-0.9687,-0.9722,-0.9752,-0.9798,-0.9827,-0.9862,-0.9929,-0.9949,-0.9958,-1.0047,-1.0087,-1.0136,-1.0138,-1.0159,-1.0169,-1.0169,-1.0179,-1.0179,-1.018,-1.0183,-1.0184,-1.0176,-1.0176,-1.0176,-1.0177,0,-0.9605,-0.9644,-0.966,-0.9725,-0.9756,-0.9788,-0.9841,-0.9868,-0.9896,-0.9933,-0.9978,-1.0028,-1.008,-1.0094,-1.0122,-1.0148,-1.0151,-1.0169,-1.0184,-1.0176,-1.018,-1.0182,-1.0173,-1.0174,-1.0174,-1.0175,0,0,-0.9568,-0.9659,-0.9664,-0.9695,-0.9762,-0.9792,-0.9827,-0.9878,-0.99,-0.9945,-0.9976,-1.0034,-1.0051,-1.0083,-1.0115,-1.0133,-1.0136,-1.0149,-1.0151,-1.0145,-1.0168,-1.0154,-1.0155,-1.0154,-1.0155,-1.0155,-1.0164,0,-0.957,-0.9634,-0.9678,-0.9725,-0.9761,-0.9806,-0.9835,-0.988,-0.9915,-0.9951,-0.9991,-1.0031,-1.005,-1.007,-1.009,-1.0132,-1.0142,-1.0132,-1.0183,-1.0184,-1.0168,-1.0157,-1.0143,-1.0149,-1.0165,-1.0166,-1.0166,0,-0.9581,-0.9626,-0.9676,-0.9739,-0.9756,-0.9782,-0.9834,-0.9867,-0.9919,-0.9943,-0.9979,-1.0013,-1.0051,-1.0062,-1.0116,-1.0108,-1.0132,-1.0155,-1.0157,-1.0163,-1.0174,-1.0164,-1.0151,-1.0152,-1.0169,-1.0169,-1.0168,0,-0.9549,-0.9621,-0.9661,-0.9685,-0.976,-0.9778,-0.981,-0.9861,-0.989,-0.9935,-0.9954,-1.0002,-1.0029,-1.0065,-1.0111,-1.0115,-1.016,-1.0175,-1.0182,-1.018,-1.0189,-1.0188,-1.018,-1.0204,-1.0204,-1.0204,-1.0204,0,-0.9547,-0.9575,-0.9647,-0.9671,-0.9705,-0.9756,-0.9788,-0.9824,-0.987,-0.9902,-0.9943,-0.9972,-1.0031,-1.0067,-1.0103,-1.0142,-1.0154,-1.0175,-1.0184,-1.0171,-1.0169,-1.0187,-1.0188,-1.0204,-1.0204,-1.0204,-1.0204,0,-0.9516,-0.9565,-0.9611,-0.9679,-0.9697,-0.9718,-0.9776,-0.9802,-0.984,-0.988,-0.9892,-0.9951,-0.9996,-1.0046,-1.0107,-1.0132,-1.0168,-1.0182,-1.0151,-1.0156,-1.016,-1.0159,-1.0165,-1.0168,-1.0189,-1.0188,-1.0188,0,-0.9511,-0.9535,-0.9605,-0.963,-0.9661,-0.97,-0.9729,-0.9781,-0.9809,-0.987,-0.9888,-0.9936,-0.9978,-1.0047,-1.0096,-1.0143,-1.0158,-1.0157,-1.0165,-1.0152,-1.0158,-1.0156,-1.0159,-1.0154,-1.0154,-1.0153,-1.0153,0,-0.9498,-0.9521,-0.9562,-0.9612,-0.9646,-0.9687,-0.973,-0.9748,-0.9808,-0.9838,-0.9885,-0.9917,-0.998,-1.0027,-1.0081,-1.0114,-1.0143,-1.015,-1.0154,-1.0141,-1.0122,-1.0133,-1.0144,-1.0149,-1.015,-1.015,-1.015,-1.015,-0.948,-0.9503,-0.9557,-0.9601,-0.9639,-0.9678,-0.9705,-0.9747,-0.9787,-0.9842,-0.987,-0.9917,-0.9968,-1.0043,-1.0076,-1.0113,-1.0122,-1.0128,-1.0129,-1.013,-1.0126,-1.0116,-1.0123,-1.0123,-1.0123,-1.0123,-1.0123,0,-0.9469,-0.9506,-0.9546,-0.9605,-0.964,-0.9665,-0.9714,-0.9742,-0.9782,-0.9828,-0.9868,-0.9921,-0.9968,-1.002,-1.007,-1.009,-1.0105,-1.0101,-1.01,-1.0107,-1.0115,-1.0107,-1.0088,-1.0088,-1.0088,-1.0088,-1.0088,-1.0088,-0.9467,-0.9507,-0.9537,-0.9597,-0.9633,-0.9679,-0.9705,-0.9742,-0.9779,-0.9837,-0.9876,-0.991,-0.9959,-1.0012,-1.0056,-1.0071,-1.0087,-1.0079,-1.0097,-1.0104,-1.0107,-1.0109,-1.0102,-1.0082,-1.0082,-1.0087,-1.0087,-1.0087]}]]